Regional Weather Roundup
Issued by NWS

Home | Current Version | Previous Version | Graphics & Text | Print | Product List | Glossary On
Versions: 1 2 3 4 5 6 7 8 9 10 11 12 13 14 15 16 17 18 19 20 21 22 23 24 25 26 27
000
ASUS45 KTFX 230410
RWRMT
MONTANA REGIONAL WEATHER ROUNDUP
NATIONAL WEATHER SERVICE GREAT FALLS MT
900 PM MST MON JAN 22 2018

NOTE: "FAIR" INDICATES FEW OR NO CLOUDS BELOW 12000 FEET WITH NO
SIGNIFICANT WEATHER AND/OR OBSTRUCTIONS TO VISIBILITY.

MTZ001>007-043-230500-
WEST OF THE DIVIDE

CITY           SKY/WX    TMP DP  RH WIND       PRES   REMARKS
KALISPELL      CLOUDY    32  26  78 SW3       30.14R
MISSOULA       CLOUDY    30  27  88 CALM      30.21R
BUTTE          MOCLDY    11   8  88 S3        30.13F
MULLAN PASS    MOCLDY    20  19  96 NW7       30.10R WCI  11
ANACONDA         N/A     25  16  68 SW3       30.15R
DEER LODGE       N/A     25  21  86 S6        30.16R WCI  18
EUREKA           N/A     34  25  69 MISG      30.14R
HAMILTON         N/A     30  28  93 W6        30.22R VSB 3/4 WCI  24
RONAN            N/A     30  28  93 S9        30.20R WCI  22
$$

MTZ008-052>055-230500-
SOUTHWEST MONTANA

CITY           SKY/WX    TMP DP  RH WIND       PRES   REMARKS
BOZEMAN        FAIR      17  15  92 S3        30.15S
DILLON         FAIR      15  14  95 SW13      30.16S WCI   1
ENNIS          CLEAR     23  16  74 S9G15     30.20R WCI  13
W YELLOWSTONE  CLOUDY    16  14  93 S9        30.15S WCI   4
$$

MTZ009-010-012-014-046-048-049-054-230500-
EAST SLOPES AND CENTRAL MONTANA

CITY           SKY/WX    TMP DP  RH WIND       PRES   REMARKS
CUT BANK       FAIR      28  19  69 W12       30.00S WCI  18
GREAT FALLS    FAIR      26  16  65 SW8       30.07R WCI  18
MALMSTROM AFB  MOCLDY    29  19  67 S13       30.07S WCI  18
HELENA         FAIR      30  19  63 SE8       30.12R WCI  22
AUGUSTA        FAIR      29  17  60 W13       30.01R WCI  19
BOWMANS CRNR   FAIR      25  17  70 S9        30.03R WCI  16
CHOTEAU          N/A     34  14  44 VRB7G15   30.05R WCI  28
FAIRFIELD      MOCLDY    31  14  50 SW12      30.04R WCI  22
POWER          MOCLDY    26  16  65 SW10      30.04S WCI  16
RAYNESFORD     CLOUDY    33  15  46 SW9       30.06  WCI  26
ULM            MOCLDY    27  18  70 S3        30.07R
WHITE SULPHUR    N/A     25  18  74 CALM      30.07R
$$

MTZ011-013-016-021-045-047-050-051-230500-
NORTH CENTRAL MONTANA

CITY           SKY/WX    TMP DP  RH WIND       PRES   REMARKS
HAVRE          FAIR      30  24  78 SW16      30.02R WCI  19
LEWISTOWN      FAIR      24  16  71 SW17      30.05S WCI  11
N BAR RANCH    FAIR      28  12  50 W8        30.05S WCI  20
CHINOOK          N/A     28  21  74 NW6       30.02S WCI  22
DENTON         FAIR      28  18  66 MISG      30.02S
GEYSER         MOCLDY    29  16  59 CALM      30.04R
GRASS RANGE    FAIR      31  18  58 W23       30.02R WCI  18
STANFORD       FAIR      30  16  56 W16       30.04R WCI  18
WINIFRED       FAIR      28  20  70 SW8       30.04R WCI  20
$$

MTZ017>020-022>027-061-062-230500-
NORTHEAST MONTANA

CITY           SKY/WX    TMP DP  RH WIND       PRES   REMARKS
GLASGOW        FAIR      18  13  80 W7        29.99S WCI   9
GLENDIVE       FAIR      22  18  85 SW5       30.03R
JORDAN           N/A     20  15  81 W7        30.03S WCI  11
MALTA          CLEAR     18  14  86 CALM      30.01S
SIDNEY         FAIR      16  13  88 CALM      30.00S
WOLF POINT     FAIR      14   9  80 W10       30.02S WCI   1
PLENTYWOOD       N/A     27  18  69 CALM      29.95R
POPLAR           N/A     14  10  85 W7        30.02R WCI   4
$$

MTZ028>42-056>058-230500-
SOUTHCENTRAL AND SOUTHEAST MONTANA

CITY           SKY/WX    TMP DP  RH WIND       PRES   REMARKS
BAKER          CLOUDY    20  16  84 CALM      30.03S
BILLINGS       FAIR      30  20  66 SW13      30.09R WCI  20
LIVINGSTON     CLOUDY    31  22  69 W16       30.12R WCI  20
MILES CITY     CLOUDY    27  21  78 S3        30.06R
BIG TIMBER     CLEAR     28  23  80 W24G30    30.10F WCI  14
FORSYTH          N/A     32  25  74 SW5       30.07R
HARLOWTON      FAIR      26  19  74 W18       30.05S WCI  13
LAUREL           N/A     28  18  64 SW12      30.12S WCI  18
$$

REGIONAL REPORTS...DAKOTAS

CITY           SKY/WX    TMP DP  RH WIND       PRES   REMARKS
WILLISTON      FAIR      25  18  74 W9        29.98S WCI  15
MINOT          CLOUDY    18  16  92 S6        29.99R WCI  10
DICKINSON      FAIR      25  18  74 W14       29.96S WCI  13
BEACH          FAIR      23  19  86 W14       30.03S WCI  11
CROSBY         FAIR      19  16  86 SW14      29.93S WCI   6
TIOGA          FAIR      19  19 100 SW7       29.96S WCI  10
WATFORD CITY     N/A     23  19  86 SW8       29.98S WCI  14
BISMARCK       FOG       23  20  88 S3        30.04F VSB 1/2
GRAND FORKS    CLOUDY    24  20  84 N5        30.07S
FARGO          CLOUDY    25  20  81 N9        30.03S WCI  15
BUFFALO SD       N/A     27  19  72 W13       29.95S WCI  16
RAPID CITY     FAIR      29  18  63 NW15      30.02R WCI  18
$$

REGIONAL REPORTS...WYOMING/IDAHO/WASHINGTON

CITY           SKY/WX    TMP DP  RH WIND       PRES   REMARKS
GILLETTE       CLOUDY    27  20  75 W13       30.06R WCI  16
SHERIDAN       CLOUDY    29  22  75 CALM      30.09R
BUFFALO WY     CLOUDY    29  17  61 CALM      30.07R
CODY           FAIR      31  12  45 W9        30.10S WCI  23
YELLOWSTONE LA   N/A     11   8  88 CALM      30.14R
IDAHO FALLS    CLOUDY    28  27  96 NW5       30.26R
SALMON         CLOUDY    22  20  92 CALM      30.27S
BOISE          FAIR      31  28  89 CALM      30.31R
SPOKANE        FAIR      34  29  82 S8        30.22R WCI  27
$$

REGIONAL REPORTS...ALBERTA

CITY           SKY/WX    TMP DP  RH WIND       PRES   REMARKS
CALGARY        PTCLDY    32  10  40 W9        29.94R WCI  24
CARDSTON         N/A     30  16  55 SW5         N/A
EDMONTON       PTCLDY    14  10  85 CALM      29.92S
FORT MCMURRAY  CLOUDY    10   7  85 E3        29.96R
HIGH LEVEL     FLURRIES   5   1  85 N3        29.98S
LETHBRIDGE     MOCLDY    34  21  60 W20       29.99F WCI  22
LLOYDMINSTER   CLOUDY    19  18  93 W10       29.90R FOG     WCI   8
MEDICINE HAT   CLEAR     28  23  80 S9        29.97S WCI  20
PEACE RIVER    FOG       21  19  93 SE3       29.90S VSB 1/4
PINCHER CREEK  CLEAR     28  21  74 W13       30.00R WCI  18
WATERTON GATE    N/A     30  19  64 SW8G18      N/A  WCI  23
$$

REGIONAL REPORTS...SASKATCHEWAN

CITY           SKY/WX    TMP DP  RH WIND       PRES   REMARKS
CORONACH         N/A     21  16  79 W9          N/A  WCI  11
CYPRESS HILLS    N/A     28  12  50 W9          N/A  WCI  20
ESTEVAN        MOCLDY    16  12  86 S6        29.92F WCI   7
MOOSE JAW        N/A     25  18  74 SW10        N/A  WCI  15
PRINCE ALBERT  FLURRIES  10   5  79 CALM      29.94R
REGINA         CLEAR     19  16  86 W10       29.88R WCI   8
ROCKGLEN         N/A     23  18  80 W17G23      N/A  WCI   9
SASKATOON      CLOUDY    18  16  93 W5        29.94R FOG
SWIFT CURRENT  CLEAR     25  19  80 W12       29.92R WCI  14
VAL MARIE        N/A     21  16  79 W10         N/A  WCI  10
$$




USA.gov is the U.S. government's official web portal to all federal, state and local government web resources and services.